Regional Weather Roundup
Issued by NWS

Home | Current Version | Previous Version | Text Only | Print | Product List | Glossary Off
Versions: 1 2 3 4 5 6 7 8 9 10 11 12 13 14 15 16 17 18 19 20 21 22 23 24 25 26 27 28 29 30 31 32 33 34 35 36 37 38 39 40 41 42 43 44 45 46 47 48 49 50

000
ASUS43 KMKX 190000
RWRWI

WISCONSIN REGIONAL WEATHER ROUNDUP
NATIONAL WEATHER SERVICE MILWAUKEE/SULLIVAN WI
700 PM CDT THU SEP 18 2014

NOTE: "FAIR" INDICATES FEW OR NO CLOUDS BELOW 12,000 FEET WITH NO
SIGNIFICANT WEATHER AND/OR OBSTRUCTIONS TO VISIBILITY.

WIZ001-002-006>008-014>016-023>028-190100-
NORTHWEST WISCONSIN

CITY           SKY/WX    TMP DP  RH WIND       PRES   REMARKS
SUPERIOR ARPT  CLOUDY    49  45  86 NE8G17    30.06F
ASHLAND        CLEAR     47  43  86 NE7       30.08F
6HR MIN TEMP:  47; 6HR MAX TEMP:  52;

HAYWARD        CLEAR     57  51  80 SE3       30.05F
6HR MIN TEMP:  52; 6HR MAX TEMP:  60;

SIREN          CLEAR     62  53  73 SE7       30.03S
RICE LAKE      CLEAR     60  52  74 SE7       30.07S
LADYSMITH      CLEAR     58  52  79 S3        30.09S
EAU CLAIRE     NOT AVBL
MENOMONIE      CLEAR     64  55  73 E7        30.05S
NEW RICHMOND   CLEAR     64  55  73 SE7       30.02S
OSCEOLA        CLEAR     65  57  75 E10       30.03F
$$

WIZ003>005-009-010-017-018-190100-
NORTH CENTRAL WISCONSIN

CITY           SKY/WX    TMP DP  RH WIND       PRES   REMARKS
WOODRUFF       CLEAR     57  50  78 SE3       30.10S
RHINELANDER    CLEAR     53  47  79 SE3       30.11F
6HR MIN TEMP:  47; 6HR MAX TEMP:  57;

EAGLE RIVER    CLEAR     53  45  74 S3        30.11S
LAND O LAKES   PTCLDY    53  46  77 SE3       30.11F
PHILLIPS       CLEAR     55  49  79 SE5       30.09S
TOMAHAWK       CLEAR     53  47  82 CALM      30.11F
MEDFORD        CLEAR     53  49  86 SE5       30.10S
MERRILL        CLEAR     55  49  80 S5        30.11S
$$

WIZ029-030-035-036-043>047-190100-
CENTRAL WISCONSIN

CITY           SKY/WX    TMP DP  RH WIND       PRES   REMARKS
WAUSAU         CLEAR     55  48  77 S8        30.10F
6HR MIN TEMP:  49; 6HR MAX TEMP:  58;

MOSINEE        CLEAR     54  50  87 SE5       30.13S
MARSHFIELD     CLEAR     54  49  83 SE5       30.10F
6HR MIN TEMP:  50; 6HR MAX TEMP:  57;

STEVENS POINT  CLEAR     53  47  80 E5        30.13S
WAUPACA        CLEAR     59  51  74 SE5       30.13F
WAUTOMA        NOT AVBL
WISC RAPIDS    CLEAR     57  50  77 E3        30.12F
6HR MIN TEMP:  51; 6HR MAX TEMP:  62;

CAMP DOUGLAS   NOT AVBL
$$

WIZ011>013-019>022-031-037>040-048>050-190100-
NORTHEAST WISCONSIN

CITY           SKY/WX    TMP DP  RH WIND       PRES   REMARKS
ANTIGO         CLEAR     52  46  82 SE8       30.13S
STURGEON BAY   CLEAR     52  43  71 E3        30.16S
6HR MIN TEMP:  52; 6HR MAX TEMP:  55;

GREEN BAY      PTCLDY    52  48  86 NE6       30.15S
6HR MIN TEMP:  52; 6HR MAX TEMP:  59;

MANITOWOC      NOT AVBL
APPLETON       MOCLDY    57  48  72 VRB3      30.14S
CLINTONVILLE   PTCLDY    54  46  76 E3        30.13F
OSHKOSH        CLEAR     57  51  80 NE3       30.13S
6HR MIN TEMP:  54; 6HR MAX TEMP:  60;

$$

WIZ032>034-041-042-053>061-190100-
SOUTHWEST WISCONSIN

CITY           SKY/WX    TMP DP  RH WIND       PRES   REMARKS
LA CROSSE      CLEAR     66  55  67 SE8       30.06R
6HR MIN TEMP:  64; 6HR MAX TEMP:  72;

SPARTA         CLEAR     62  53  70 SE5       30.10S
VIROQUA        FAIR      62  55  78 SE6       30.09S
BOSCOBEL       CLEAR     64  57  78 CALM      30.08S
6HR MIN TEMP:  63; 6HR MAX TEMP:  71;

PRAIRIE DU CHI CLEAR     67  53  59 CALM      30.06S
PLATTEVILLE    FAIR      65  53  65 CALM      30.10S
$$

WIZ056-057-062-063-064-067-068-190100-
SOUTH CENTRAL WISCONSIN

CITY           SKY/WX    TMP DP  RH WIND       PRES   REMARKS
BARABOO/DELLS  CLEAR     60  51  73 E3        30.12R
LONE ROCK      NOT AVBL
WATERTOWN      CLEAR     60  55  82 E5        30.11S
MADISON        PTCLDY    60  52  74 E6        30.12R
6HR MIN TEMP:  54; 6HR MAX TEMP:  67;

MIDDLETON      FAIR      63  53  69 E3        30.12R
MONROE         CLEAR     63  54  72 E3        30.10S
JANESVILLE     PTCLDY    63  54  72 E9        30.11R
$$

WIZ051-052-058>065-066-070>072-190100-
SOUTHEAST WISCONSIN

CITY           SKY/WX    TMP DP  RH WIND       PRES   REMARKS
MILWAUKEE      MOCLDY    56  51  84 N6        30.15S
6HR MIN TEMP:  56; 6HR MAX TEMP:  59;

WAUKESHA       PTCLDY    54  48  82 E7        30.15S
MILWAUKEE/TIMM CLOUDY    55  48  76 N5        30.16R
RACINE         CLOUDY    57  52  83 N5        30.16S
6HR MIN TEMP:  57; 6HR MAX TEMP:  60;

BURLINGTON     PTCLDY    55  51  87 E6        30.15R
KENOSHA        CLOUDY    57  52  83 NE8       30.15S
6HR MIN TEMP:  57; 6HR MAX TEMP:  64;

FOND DU LAC    CLEAR     56  50  80 NE6       30.13S
6HR MIN TEMP:  56; 6HR MAX TEMP:  62;

SHEBOYGAN      CLEAR     51  46  83 E5        30.15S
6HR MIN TEMP:  51; 6HR MAX TEMP:  59;

WEST BEND      CLEAR     54  48  82 SE3       30.15R
JUNEAU         CLEAR     60  53  78 E6        30.13S
$$

LSZ147-162-190100-
LAKE SUPERIOR

STATION/POSITION TIME  TEMP    WIND        PRES    WAVE
                       AIR SEA DIR/SP/G            HT/PER
                 (UTC) (F)     (DEG/KT/KT) (MB)    (FT/S)
W MID LAKE BUOY  2250   46 47   60/ 10/ 12 1020.0F   1/ 3
DEVILS ISLAND    2300   47      70/  8/ 10 1019.9F
PORT WING        2300   50      40/ 11/ 14 1018.3F
SAXON HARBOR     2300   52      40/  8/ 10 1019.3F
$$

LMZ867-665-643>646-190100-
LAKE MICHIGAN

STATION/POSITION TIME  TEMP    WIND        PRES    WAVE
                       AIR SEA DIR/SP/G            HT/PER
                 (UTC) (F)     (DEG/KT/KT) (MB)    (FT/S)
N MID LAKE BUOY  2250   52 58   60/  2/  4 1022.0R   1
NORTHPORT PIER   2300   53      80/  6/  7 1021.0F
SISTER BAY       2257   54     140/  6/ 10   N/A
KEWAUNEE LAKESHO 2300   53     110/  5/  6 1020.3S
SHEBOYGAN LAKESH 2300   52 49   40/ 10/ 10 1021.5F
PORT WASHINGTON  2300   57      60/  5/  7 1021.3
ATWATER BUOY     2300   57      40/  6/ 10 1021.8S
MILWAUKEE LAKESH 2300   56      20/  6/  8   N/A
S MID LAKE BUOY  2250   61 65   30/ 10/ 12 1020.2F   2/ 6
KENOSHA   LAKESH 2300   57      10/  7/  9 1020.3S
$$

TC  - TEMPERATURE IN CELSIUS
VSB - VISIBILITY IN STATUTE MILES
WCI - WIND CHILL INDEX
HX  - HEAT INDEX



USA.gov is the U.S. government's official web portal to all federal, state and local government web resources and services.